Regional Weather Roundup
Issued by NWS

Home | Current Version | Previous Version | Graphics & Text | Print | Product List | Glossary On
Versions: 1 2 3 4 5 6 7 8 9 10 11 12 13 14 15 16 17 18 19 20 21 22 23 24 25 26 27 28 29 30 31 32 33 34 35 36 37 38 39 40 41 42 43 44 45 46 47 48 49 50
000
ASUS43 KLMK 252210
RWRKY
KENTUCKY REGIONAL WEATHER ROUNDUP
NATIONAL WEATHER SERVICE LOUISVILLE KY
600 PM EDT MON JUL 25 2016

NOTE "FAIR" INDICATES FEW OR NO CLOUDS BELOW 12,000 FEET
WITH NO SIGNIFICANT WEATHER AND/OR OBSTRUCTIONS TO VISIBILITY.

KYZ001>023-026-027-061>063-070>075-252300-
WESTERN AND SOUTH CENTRAL KENTUCKY

CITY           SKY/WX    TMP DP  RH WIND       PRES   REMARKS
PADUCAH        CLOUDY    83  74  74 W9        29.96S
HENDERSON      CLOUDY    82  73  74 E5        29.94F
OWENSBORO      CLOUDY    80  76  87 E3        29.98F
HOPKINSVILLE   SUNNY     91  76  60 SW7       29.95F HX 103
BOWLING GREEN  CLOUDY    83  73  72 VRB6      29.99R THUNDER
GLASGOW        PTSUNNY   88  74  63 W6        29.99S HX  96
$$

KYZ024-025-028>034-038-045-046-053-252300-
NORTH CENTRAL KENTUCKY

CITY           SKY/WX    TMP DP  RH WIND       PRES   REMARKS
LOUISVILLE/SDF LGT RAIN  80  74  81 SW6       29.97F
LOUISVILLE/LOU LGT RAIN  79  73  82 W3        29.98F
FORT KNOX      PTSUNNY   77  73  88 CALM      29.99S
$$

KYZ035>037-039>044-047>052-055>060-089>105-252300-
NORTHEAST KENTUCKY

CITY           SKY/WX    TMP DP  RH WIND       PRES   REMARKS
LEXINGTON      MOSUNNY   84  73  69 SW5       30.00F HX  90
COVINGTON      CLOUDY    87  75  67 SW7       29.98S HX  96
FRANKFORT      CLOUDY    82  75  79 SW12G20   29.99S
$$

KYZ054-064>069-076>088-106>120-252300-
SOUTHEAST KENTUCKY

CITY           SKY/WX    TMP DP  RH WIND       PRES   REMARKS
JACKSON        CLOUDY    77  73  87 CALM      30.04S
LONDON         PTSUNNY   91  70  49 W9        30.01S HX  96
SOMERSET       MOSUNNY   88  70  55 NW6       30.00F HX  92
MIDDLESBORO    CLOUDY    84  73  69 CALM      30.02S HX  90
MONTICELLO     HVY RAIN N/A N/A N/A E9        30.01F
$$





USA.gov is the U.S. government's official web portal to all federal, state and local government web resources and services.